Вернуться в каталог

COSMOS 990

АктивенВоенныеLEO
NORAD 10676·PAYLOAD·🇷🇺 Russia

Запущен Feb 17, 1978 с Plesetsk Cosmodrome

Loading…

Ближайшие Пролёты (ближайшие 24 часа)

TLE

СвежийSource: Space-Track

Эпоха: Sep 14, 2026, 04:58 UTC

1 10676U 78019A   26257.20735712  .00000099  00000-0  42082-4 0  9992
2 10676  74.0412 347.3065 0017377 296.7275  63.2100 14.37267096542818

Отслеживайте COSMOS 990 в реальном времени с AllMySat

Download on the App Store